Theta_e
331 321 317 320 314 312 309 302 291 289 290 285 286 288 288 296 298 298 297 298 298 300 306 326 325 323 306 315 319 326 327 316 314 302 301 313 341 342 344 347 349 351 352 355 355 355 355 355 355 356 354 355 354 354 353 352 352 352 352 351 352 351 351 351 351 351 351 350 350 349 349 348 347 347 346 345 345 345 345 346 344 343 343 343 344 345 345 345 346 346 346 347 347 346 346 346 346
320 316 316 317 314 311 306 294 287 289 285 283 288 289 291 294 299 295 296 296 296 307 319 325 327 329 329 329 328 324 320 329 329 325 334 341 343 343 347 349 350 350 353 355 355 355 354 355 355 355 355 355 354 354 353 352 352 353 353 352 352 351 350 351 350 350 351 350 350 349 348 348 347 346 346 346 346 346 347 346 345 346 345 343 343 344 344 345 345 345 346 346 346 346 346 346 346
321 312 312 312 307 308 303 297 290 283 285 282 285 292 294 295 294 297 298 296 299 316 319 321 325 325 324 325 322 316 305 333 334 336 335 341 336 338 347 349 350 351 353 355 355 354 354 354 354 354 355 355 354 353 353 353 352 352 352 351 351 351 351 350 350 351 350 350 350 349 348 348 347 346 346 346 346 347 347 346 346 347 348 347 345 344 344 345 345 345 345 345 345 346 345 344 343
315 315 310 307 304 299 296 293 285 284 284 283 286 289 291 292 295 297 297 297 301 310 312 323 323 328 324 323 326 330 327 329 334 335 333 337 336 343 347 349 351 352 354 354 354 354 354 354 354 354 353 354 354 354 354 353 353 353 353 351 351 351 351 350 350 350 350 349 349 349 348 348 346 346 346 346 346 348 348 347 347 347 347 347 346 344 344 344 345 345 345 345 345 345 344 343 342
310 316 315 306 298 298 296 292 288 284 286 285 286 291 293 293 294 294 295 297 296 297 320 324 322 329 331 327 330 320 321 333 335 338 336 339 344 346 348 350 351 352 352 354 354 354 353 355 355 354 353 354 354 354 353 354 353 353 352 351 352 351 351 350 350 350 349 349 349 349 348 348 346 347 346 346 348 348 348 348 349 349 349 349 346 345 345 345 345 345 345 345 345 344 343 342 342
309 307 312 309 301 301 296 291 291 289 290 289 288 291 293 295 296 296 297 297 299 302 320 315 322 323 327 329 332 323 333 326 334 335 337 337 344 347 349 350 350 351 352 353 354 353 353 355 354 354 353 354 354 354 354 353 352 353 351 351 351 350 349 350 350 350 349 349 349 349 349 348 347 346 346 346 347 348 349 349 349 350 350 349 347 346 346 345 346 346 346 345 344 343 342 342 342
307 303 302 302 300 298 290 286 287 288 295 294 292 295 298 299 297 296 296 298 306 323 325 325 330 328 324 328 332 336 339 338 335 335 340 341 345 347 348 348 349 349 352 353 353 353 353 354 353 353 354 353 354 354 354 353 352 353 352 352 350 349 350 350 350 351 349 349 349 348 349 348 347 346 347 347 347 348 349 349 350 350 349 348 347 346 346 346 346 347 346 345 344 342 342 342 342
312 303 301 294 291 294 290 289 290 291 293 298 298 298 300 300 300 298 296 298 299 317 325 328 330 326 322 334 322 335 337 338 338 341 342 343 344 345 346 347 348 349 351 353 353 353 355 352 353 353 354 354 354 353 353 353 353 353 351 351 350 350 350 350 350 350 350 348 348 348 348 349 348 347 347 347 348 349 349 350 350 349 349 348 347 347 347 346 346 346 345 344 342 342 343 342 343
307 301 303 295 292 291 286 288 289 293 296 298 299 302 311 305 303 299 296 296 311 321 323 327 327 316 323 327 325 333 334 338 341 343 341 342 342 343 345 347 347 348 350 352 353 353 352 353 353 353 354 354 353 353 353 353 353 353 352 350 351 350 350 350 350 350 350 350 349 348 348 348 348 347 348 348 349 349 350 351 350 349 348 348 347 347 347 346 347 346 345 344 344 344 343 342 344
304 300 295 293 289 290 287 288 290 291 293 296 298 300 300 300 300 298 296 315 313 322 327 330 328 321 328 324 327 330 330 338 339 338 340 341 341 342 345 346 348 348 349 351 353 352 352 355 353 352 352 353 353 353 353 353 353 353 351 351 351 351 351 351 350 351 350 350 350 350 349 349 349 349 349 349 350 351 350 350 349 349 348 348 347 347 347 346 346 345 344 345 345 345 344 344 345
298 298 297 292 289 287 288 286 289 293 294 297 297 300 300 300 297 297 297 306 303 322 326 329 326 325 328 328 330 338 337 337 336 334 338 339 341 342 343 346 349 349 349 351 352 352 352 352 354 352 352 353 352 352 352 352 352 351 351 351 351 351 351 351 350 350 350 350 350 349 350 350 350 350 351 351 350 350 349 349 348 348 348 348 347 347 347 347 346 346 345 345 344 344 344 344 345
297 295 293 286 287 287 287 288 291 294 296 294 294 296 297 297 297 297 305 313 320 323 323 326 323 330 326 328 329 334 335 335 335 337 338 340 341 343 344 346 348 349 350 351 352 351 351 352 352 354 353 352 352 352 352 352 352 351 351 351 351 351 351 350 350 350 350 351 351 351 351 351 351 351 350 350 349 349 348 348 348 348 348 348 347 347 347 346 346 345 346 345 345 344 344 344 345
296 293 288 287 286 288 290 289 290 294 293 292 293 298 298 298 298 299 304 312 320 319 318 325 332 329 320 324 333 336 333 335 336 337 338 340 342 344 346 346 348 349 350 350 350 351 351 351 351 351 352 353 352 351 352 352 351 351 351 351 351 351 351 351 351 351 351 351 351 351 351 351 351 350 350 349 348 348 348 347 347 347 347 348 347 347 347 346 345 346 345 345 344 343 344 344 343
298 296 291 291 288 287 290 289 289 289 286 291 292 295 298 298 298 297 318 317 319 317 323 333 331 331 326 330 331 332 333 336 336 337 339 341 343 344 345 347 347 348 349 349 349 350 350 350 350 349 350 349 349 351 352 351 351 351 350 350 350 350 350 350 350 350 350 350 351 351 351 351 350 350 350 349 348 347 347 347 347 347 347 347 347 347 346 346 346 346 345 345 344 343 343 344 342
302 297 291 291 288 289 288 290 287 286 287 291 296 298 297 301 299 307 318 317 320 329 332 334 332 325 321 326 326 331 334 335 336 338 340 341 342 343 344 345 346 347 348 348 349 349 348 349 348 348 348 347 347 347 347 350 351 351 350 350 350 349 350 350 350 349 350 350 350 350 350 350 350 350 349 349 348 348 347 347 347 346 347 347 347 347 346 346 346 345 345 345 344 344 343 344 344
302 294 291 292 287 287 287 288 289 290 289 292 294 297 298 300 303 301 305 320 323 330 328 325 331 323 326 328 329 335 337 335 337 338 339 339 340 342 343 344 344 345 346 347 347 348 348 348 347 347 345 345 345 345 345 347 349 350 350 350 350 350 350 349 349 349 350 350 350 349 349 349 349 348 349 347 348 347 347 346 347 346 346 347 347 347 346 346 346 345 345 344 343 343 343 343 344
299 297 290 285 287 287 287 288 287 286 289 292 294 296 297 297 301 324 328 328 325 323 328 330 326 333 330 331 335 338 337 337 338 337 336 335 337 338 340 341 342 343 344 345 346 346 347 347 347 345 345 345 344 344 345 346 348 350 350 350 350 350 349 349 349 349 349 349 348 348 347 344 344 346 346 345 348 346 347 346 346 346 346 346 347 346 346 345 345 345 344 344 343 342 342 343 343
298 291 287 286 286 288 289 291 291 294 293 293 295 296 294 295 305 322 323 325 326 326 326 328 334 334 335 337 339 338 336 336 336 334 333 332 334 334 335 337 339 338 341 342 344 346 346 346 346 345 345 345 345 345 345 346 347 348 346 346 347 348 349 349 347 346 348 345 348 345 342 345 341 342 343 348 344 346 345 346 346 346 346 346 346 346 345 345 345 345 344 344 343 341 338 332 339
295 289 287 288 287 291 292 292 293 294 293 293 295 295 297 296 299 309 317 318 321 321 323 327 329 332 335 337 336 335 335 334 334 333 331 331 332 332 333 335 336 338 337 340 342 344 345 345 345 344 345 346 346 346 345 345 345 345 344 344 346 347 347 347 344 346 341 342 342 341 344 343 340 340 341 345 344 345 345 346 345 345 345 346 346 346 345 345 345 345 344 343 340 338 331 330 332
295 291 287 289 291 291 293 294 296 296 296 295 295 296 295 298 297 301 313 315 320 319 320 321 323 328 331 334 335 333 334 333 333 332 331 331 331 332 332 333 334 335 337 339 340 344 344 343 344 344 345 345 344 344 344 343 344 345 343 342 342 343 343 344 342 341 340 340 342 341 341 342 340 340 347 347 346 342 342 345 345 345 345 345 346 344 345 345 345 345 343 339 336 333 329 329 329
294 294 290 291 293 294 298 297 297 296 296 295 295 294 295 298 297 303 314 312 312 316 323 323 325 329 331 333 333 333 332 332 332 332 332 332 332 332 330 329 331 335 335 337 339 341 342 343 343 343 344 344 344 344 344 344 344 344 344 343 342 341 343 342 339 339 339 340 339 339 340 341 339 339 338 339 338 337 336 337 338 336 336 336 342 333 336 338 335 333 333 334 331 330 328 327 326
294 295 297 294 293 293 297 295 295 295 297 294 293 295 297 296 300 313 314 306 304 314 321 325 330 332 332 332 333 333 332 331 332 332 332 331 328 328 329 330 332 334 334 334 336 340 341 342 342 342 343 343 343 343 344 345 344 342 342 343 343 343 342 341 339 339 340 339 338 337 339 337 337 337 337 336 335 333 334 333 332 332 332 333 334 332 331 332 331 332 333 333 331 329 328 328 328
292 292 294 294 296 296 297 297 296 295 295 295 296 297 297 295 297 302 309 302 305 319 325 329 333 335 335 335 334 332 331 329 329 329 331 329 328 329 329 331 332 332 333 333 336 337 339 341 341 342 342 341 341 344 344 344 343 343 343 343 342 341 341 340 339 339 339 339 338 339 336 336 336 335 335 334 334 334 333 331 330 331 332 332 332 329 331 331 331 333 332 331 329 328 328 328 328
295 291 293 295 295 295 297 297 294 294 294 294 295 297 297 295 294 296 295 297 299 308 330 334 335 336 336 333 333 332 330 328 326 328 329 328 329 326 328 330 333 334 333 333 335 336 338 339 341 341 340 341 340 343 343 342 342 342 343 344 341 342 341 340 340 339 338 338 338 338 337 336 335 335 334 334 333 332 333 331 328 330 332 332 330 330 331 329 329 332 332 331 329 328 329 329 329
293 291 294 296 296 296 297 297 296 294 293 293 297 296 296 294 294 294 295 294 320 329 333 334 335 335 334 333 332 330 328 327 326 327 329 329 328 329 329 330 332 333 333 334 335 336 337 338 339 339 340 340 340 341 341 341 341 341 342 341 340 343 339 339 339 337 336 337 337 338 339 335 334 335 334 334 333 332 331 330 328 328 328 329 328 328 329 327 328 330 330 329 327 327 328 328 329
293 295 295 294 295 295 295 293 294 295 295 295 296 293 292 293 298 295 296 303 326 331 332 333 333 332 332 332 331 329 328 326 326 326 328 328 328 327 328 329 331 332 333 335 336 335 335 336 338 338 337 338 340 340 339 339 339 339 340 339 340 341 338 338 338 337 336 337 338 338 338 336 335 334 334 333 333 331 329 328 328 327 328 327 327 328 327 327 326 329 327 329 327 326 327 329 329
293 293 294 295 296 295 294 294 292 293 295 294 295 292 293 294 295 290 294 313 330 330 329 331 331 331 331 332 330 330 328 326 327 326 327 327 327 326 327 329 330 331 333 334 335 334 335 335 335 337 336 341 339 339 337 337 337 337 338 338 339 338 337 338 336 338 337 338 339 339 338 337 336 335 334 333 333 330 329 328 328 327 327 326 327 328 326 327 326 329 329 328 326 326 327 328 329
295 295 294 292 292 292 293 293 292 293 296 293 295 293 293 294 294 292 294 311 329 327 327 328 329 330 330 331 329 330 328 327 327 326 324 324 325 326 326 328 329 329 331 333 334 334 333 334 335 336 336 337 337 337 337 336 336 337 337 337 337 336 337 336 337 337 340 340 339 338 338 337 337 336 335 334 333 330 329 327 326 327 328 326 327 327 327 326 326 328 329 329 327 327 327 326 327
295 295 292 290 289 293 293 293 294 294 296 294 294 294 292 293 292 293 294 320 327 327 326 326 327 328 329 330 329 328 328 326 326 326 325 326 327 328 327 329 329 329 329 332 332 332 332 333 334 335 335 336 335 335 334 335 335 337 337 337 336 337 336 337 337 337 339 339 338 338 338 338 338 336 334 334 335 330 328 327 327 329 328 328 328 327 328 327 329 329 329 329 327 327 327 326 327
298 293 290 290 286 287 290 293 295 295 296 294 296 285 286 289 293 294 300 321 323 324 324 325 325 326 327 328 328 328 326 324 325 326 326 326 327 328 328 329 330 329 330 331 331 332 333 333 334 333 334 334 334 334 335 335 335 336 336 334 336 335 336 336 337 337 338 338 338 337 337 338 337 335 335 334 334 332 330 329 328 328 329 328 329 330 329 329 329 329 328 327 329 327 326 326 326
292 291 289 286 286 284 290 293 294 294 296 295 295 288 288 293 295 293 298 322 322 321 323 323 324 325 326 327 328 327 325 325 325 326 327 326 327 329 329 329 330 330 330 330 331 332 333 333 333 333 334 333 335 334 334 334 335 336 336 335 334 335 335 336 337 337 337 336 337 337 338 338 337 335 334 333 333 331 330 329 328 329 330 329 329 330 330 329 329 328 328 326 325 324 325 326 325
287 288 283 282 285 284 290 292 294 293 295 295 294 287 290 292 294 294 295 316 321 319 321 322 322 325 325 326 327 327 325 325 326 326 327 326 327 328 328 328 329 329 330 330 331 332 332 332 334 332 333 332 333 334 333 334 335 335 335 336 334 334 335 335 337 337 337 335 335 337 338 337 336 334 332 331 330 330 330 329 329 330 330 330 329 329 330 328 328 328 328 327 325 323 325 324 324
284 284 282 284 285 283 288 291 292 294 294 294 294 287 287 290 291 292 295 315 319 318 318 319 321 323 325 326 327 325 324 323 325 325 326 326 327 328 328 328 328 329 330 330 330 331 331 332 333 332 332 332 333 333 333 333 333 334 333 334 333 334 334 334 336 337 335 333 335 336 336 336 334 332 332 331 330 330 329 328 328 330 330 330 330 329 329 329 328 328 326 325 326 324 324 324 325
280 284 285 285 286 285 284 289 292 293 294 291 293 290 291 292 291 292 294 302 317 317 317 318 319 322 324 326 326 324 324 323 323 324 324 326 327 328 328 330 329 329 330 331 331 331 330 331 332 331 330 332 333 333 333 332 332 333 333 333 335 334 334 334 335 337 336 335 336 336 335 336 333 332 332 332 330 330 330 329 330 330 330 330 330 330 329 329 329 328 325 323 325 325 324 324 325
280 282 282 284 284 287 287 287 289 293 292 291 290 289 291 293 294 293 293 296 311 317 318 318 317 319 322 324 325 325 324 323 322 323 324 325 327 328 328 328 328 328 330 330 330 330 330 330 330 331 330 330 332 332 332 331 331 331 331 331 333 333 334 334 336 336 334 334 334 335 334 334 334 331 332 332 331 332 329 330 330 331 331 329 329 329 329 329 328 327 326 324 325 324 325 325 327
285 285 284 284 285 284 286 288 291 294 291 289 289 289 291 293 294 292 293 296 302 311 314 314 315 317 320 323 324 323 323 322 323 324 324 326 328 329 329 329 328 328 329 330 329 329 329 329 329 329 330 331 331 330 331 331 331 330 329 330 332 333 334 335 336 334 333 332 334 334 334 333 332 332 332 332 332 331 330 330 329 331 330 329 328 328 328 328 327 326 325 325 325 326 325 327 329
287 287 286 286 285 286 287 290 292 294 291 289 290 291 291 292 291 291 292 296 305 307 311 312 312 313 316 319 322 322 322 322 323 323 324 325 328 330 330 329 328 329 329 330 330 329 329 328 328 327 330 332 331 330 330 330 329 329 330 329 329 333 333 335 334 333 332 333 333 333 334 333 332 332 333 332 331 334 331 330 329 330 330 328 328 329 329 328 328 327 326 326 325 323 324 327 327
288 286 286 284 287 284 289 291 293 293 291 287 288 289 290 291 291 292 295 295 294 297 305 309 311 312 314 318 320 320 319 318 322 322 323 324 327 329 329 328 328 326 328 330 329 329 329 328 328 329 331 332 332 330 330 331 331 331 329 329 330 332 333 333 332 333 331 333 332 333 332 331 332 332 333 332 332 332 330 330 329 330 330 329 329 329 328 330 328 327 326 324 323 324 325 328 326
288 286 284 285 284 286 289 291 293 293 291 286 287 288 290 291 292 296 296 296 299 302 298 300 307 309 311 314 316 316 317 316 319 321 322 324 326 328 328 327 327 328 328 329 329 329 329 328 329 332 333 333 332 332 330 329 330 331 331 331 332 331 333 333 334 334 334 333 332 332 331 332 332 332 333 333 332 332 331 330 330 330 329 330 328 328 328 328 328 327 326 325 324 323 326 328 325
286 287 285 282 285 288 284 289 290 292 292 289 287 289 286 290 292 296 298 301 305 308 311 311 305 307 309 312 315 317 317 315 317 319 321 323 325 327 328 327 327 327 327 328 328 328 329 329 330 332 333 333 333 332 331 330 330 329 329 330 332 331 329 332 331 332 332 330 329 330 330 331 332 332 333 332 331 331 331 330 330 329 328 329 328 328 327 327 327 326 326 326 325 323 325 326 324
286 287 286 285 288 287 288 287 290 290 291 291 289 283 284 287 288 293 301 306 309 310 312 313 315 316 312 311 312 318 317 316 317 319 321 322 324 325 326 328 328 326 326 327 328 328 329 329 331 333 333 333 333 332 331 329 330 329 328 329 330 328 329 329 328 328 330 331 330 329 330 332 332 332 332 332 332 331 330 330 329 328 328 329 329 328 328 328 328 327 327 326 325 325 324 325 325
284 287 289 288 288 289 288 289 288 283 282 288 287 279 284 285 292 294 301 305 306 309 311 312 314 315 316 315 314 311 315 317 318 319 320 322 324 325 326 327 327 327 327 328 329 329 330 331 333 334 334 333 333 333 332 330 330 330 327 326 325 325 324 325 325 326 327 328 329 330 330 332 332 332 332 332 332 332 329 328 326 328 328 330 330 328 328 328 328 327 327 326 324 326 325 324 322
283 285 289 290 289 289 288 288 285 280 281 290 290 280 280 283 293 293 295 302 304 309 311 312 314 315 316 316 316 316 315 314 315 318 320 322 324 325 325 326 327 327 329 330 332 333 334 334 334 334 333 333 333 333 332 331 330 330 329 328 327 326 325 325 327 327 328 329 330 330 330 330 331 331 331 331 331 331 328 327 327 327 328 330 331 328 327 328 328 328 327 326 325 325 324 322 322
282 286 290 291 289 288 287 286 285 282 285 289 286 282 280 281 290 292 297 299 303 307 309 311 313 313 314 316 317 318 318 320 320 320 320 322 324 324 324 325 327 328 330 331 332 333 332 333 333 333 333 332 332 333 332 331 330 330 329 328 328 327 326 325 325 325 326 328 329 330 329 330 331 331 330 331 331 331 328 327 328 327 328 330 331 330 328 328 328 328 327 326 326 326 325 323 321
284 289 291 291 291 289 287 285 284 284 284 282 281 286 280 278 287 296 298 297 300 304 307 309 312 313 313 314 315 317 318 318 318 319 321 323 323 323 323 324 326 326 326 327 328 329 330 332 333 333 332 332 332 332 332 332 331 330 330 329 327 327 326 322 324 325 326 327 328 329 329 329 329 329 330 328 329 329 330 328 328 327 327 328 331 330 329 329 328 328 326 325 325 325 325 324 323
289 291 292 290 289 289 287 283 285 283 281 277 282 284 277 279 288 294 296 294 298 302 307 309 311 312 312 313 314 316 317 317 318 318 319 319 319 319 319 320 320 321 322 322 323 325 326 328 330 331 332 332 331 331 332 331 331 330 329 328 327 326 324 322 323 324 325 327 327 327 327 328 328 327 329 329 329 329 328 328 328 327 327 328 330 330 329 328 328 329 327 326 326 325 325 325 324
291 292 290 287 286 285 285 283 281 281 278 276 280 285 279 278 289 295 295 297 300 305 306 309 310 311 312 313 314 314 315 316 316 317 317 318 320 320 320 319 320 320 320 320 321 322 323 326 326 326 329 331 331 331 331 331 330 329 327 327 326 324 324 322 322 324 326 327 326 326 326 327 328 327 328 328 328 328 328 328 327 328 328 329 329 328 328 328 328 328 328 327 326 326 325 324 323
291 288 284 285 285 282 280 277 279 276 272 276 281 285 283 281 288 298 304 306 306 306 305 306 308 309 311 312 313 313 314 313 314 314 313 314 315 317 318 319 319 319 319 319 321 323 322 324 323 322 323 325 326 326 327 329 329 328 327 324 323 323 324 323 322 324 326 326 325 325 326 327 326 326 328 328 327 328 328 327 327 327 328 328 329 329 329 328 328 328 327 326 326 326 325 325 323
288 286 286 281 276 274 275 276 276 275 277 282 281 286 288 288 294 302 305 305 306 307 307 307 308 308 309 311 312 312 312 311 311 311 311 311 312 313 314 316 319 319 317 319 320 322 322 322 322 321 322 324 324 326 325 327 326 325 323 323 324 324 324 325 324 324 324 325 325 324 324 324 324 324 326 328 327 328 328 327 327 326 326 327 328 328 328 328 327 327 327 326 326 325 325 324 323
286 285 280 278 274 272 269 270 271 275 279 282 282 286 284 293 299 305 304 306 308 308 308 309 308 308 308 309 309 309 309 308 308 308 308 308 309 311 312 313 315 318 320 320 321 322 321 319 321 321 321 323 324 324 325 326 324 323 324 324 324 325 325 325 325 325 324 325 323 324 325 325 324 325 326 327 329 329 327 327 328 327 327 326 327 327 328 327 327 327 326 326 325 326 325 324 324
287 286 286 282 276 274 271 274 271 276 276 279 283 282 283 287 291 306 307 309 310 309 309 309 308 308 308 308 308 308 307 307 306 306 306 307 308 309 310 311 313 314 316 320 322 321 321 320 321 321 320 322 323 324 325 324 322 323 324 324 324 326 325 326 326 325 324 324 323 323 324 326 326 327 327 326 328 327 327 327 327 327 326 326 326 325 326 326 326 326 326 325 325 325 325 325 324
287 287 287 283 284 279 278 275 277 276 278 276 281 279 289 291 302 307 308 308 308 308 307 307 305 306 306 305 305 306 306 306 305 305 305 305 306 307 308 309 310 311 312 314 315 318 320 320 321 321 320 321 323 324 324 323 322 323 322 324 325 326 326 326 325 324 325 326 325 325 324 325 324 323 326 326 325 326 326 326 327 327 326 326 326 325 325 325 325 324 324 324 325 326 324 324 324
286 286 283 285 287 285 276 276 281 274 275 273 280 290 293 299 301 301 305 305 305 305 305 304 304 304 303 303 303 304 305 305 305 304 303 303 304 304 306 306 308 308 309 310 312 314 318 321 320 320 321 321 323 324 324 324 323 323 323 325 326 326 326 325 324 323 324 325 326 326 325 326 325 324 326 326 325 325 325 326 326 326 325 325 325 325 326 326 326 325 325 325 325 325 325 324 324
286 282 286 289 290 288 282 276 272 269 270 272 281 286 288 289 284 301 302 301 303 302 302 302 302 302 301 301 302 302 303 303 304 304 304 304 303 304 304 305 306 307 308 308 310 313 316 318 319 320 320 321 321 323 323 323 323 323 323 324 325 326 325 325 324 323 323 324 324 324 324 325 325 325 326 326 326 326 327 328 326 325 324 324 325 326 327 327 326 326 326 326 326 326 325 323 324
290 287 290 287 279 281 280 277 271 272 271 272 283 286 289 290 289 297 298 299 299 300 300 300 299 300 300 300 301 302 302 302 302 302 302 302 303 303 303 304 305 306 307 308 309 311 312 314 316 319 321 322 322 323 324 324 324 324 324 324 325 326 325 324 324 324 323 324 324 324 323 325 325 325 325 325 325 325 326 326 326 325 324 324 325 326 327 326 326 325 325 325 325 325 325 323 324
293 291 289 290 284 279 280 278 278 278 269 274 280 285 284 294 294 300 299 300 300 299 298 298 298 299 299 299 300 300 300 300 301 301 301 301 302 302 303 303 304 304 305 307 308 309 310 311 313 315 317 321 324 323 323 323 324 324 325 325 327 327 325 324 324 323 323 323 323 324 323 323 324 325 325 325 325 325 325 325 326 326 325 324 324 324 325 326 325 325 325 324 324 325 325 324 323
287 286 285 286 285 287 286 284 281 279 270 266 275 275 282 291 301 300 300 301 300 299 297 297 298 299 299 299 299 299 299 299 300 300 300 300 301 301 302 303 304 304 305 305 306 307 308 309 310 311 312 315 316 320 323 324 324 324 325 324 325 326 325 324 324 324 323 323 324 324 324 324 325 324 324 325 325 326 326 326 326 326 325 323 323 323 324 324 324 323 324 324 324 325 325 323 323
288 286 286 286 286 283 280 277 284 282 276 272 273 271 282 296 303 300 299 301 300 299 298 297 297 298 298 298 299 299 298 299 299 299 300 300 300 301 302 302 303 303 303 303 305 306 306 306 307 309 309 311 313 314 318 324 325 325 325 325 326 327 326 325 323 323 323 323 323 323 324 324 324 325 325 325 325 326 325 324 325 325 325 325 324 324 323 323 323 323 323 324 324 324 323 321 320
Wind_Speed
1 0 2 1 3 2 2 4 1 2 2 4 3 1 3 2 4 5 5 5 1 1 1 6 5 3 1 2 9 6 2 3 1 3 2 1 1 7 8 8 11 11 12 10 10 10 10 12 14 15 15 17 17 17 17 17 17 17 16 16 17 18 18 18 19 19 20 20 20 20 20 22 22 21 21 21 21 21 20 21 20 18 17 17 17 17 16 15 15 15 15 15 15 15 15 15 15
0 0 1 0 1 1 0 1 2 1 5 1 7 2 4 2 0 5 6 6 2 3 2 7 9 12 12 10 8 2 3 4 1 1 2 1 5 4 8 11 14 13 10 10 10 9 10 12 15 14 15 17 18 18 18 18 17 16 16 16 17 18 18 18 19 20 19 19 20 20 20 21 21 20 20 20 20 19 18 19 20 19 18 16 16 17 16 16 15 15 15 14 14 14 14 14 13
1 0 2 3 4 3 1 3 1 1 2 4 6 8 2 2 5 7 10 7 4 7 4 4 5 4 1 3 4 2 1 2 6 4 3 3 10 3 7 8 12 11 12 9 10 10 9 11 16 15 17 17 17 18 18 17 17 16 16 16 17 18 18 18 18 17 18 19 19 20 20 21 20 20 19 19 19 17 17 17 19 18 17 17 17 17 16 16 15 15 15 14 13 13 13 12 11
1 2 3 2 0 3 1 2 5 6 2 6 4 4 3 3 7 9 7 5 4 5 0 3 5 3 3 8 2 3 3 0 1 5 5 6 1 7 8 9 10 9 8 9 9 10 9 13 16 16 17 17 17 18 17 17 17 16 16 16 17 17 17 17 17 17 17 18 19 19 20 20 19 19 19 19 17 15 16 16 18 18 17 16 16 16 17 16 15 15 14 13 13 12 12 12 11
1 2 2 2 4 1 1 1 3 3 4 4 2 4 4 5 7 5 6 5 2 3 1 2 3 4 2 4 1 1 3 2 4 3 3 2 7 7 9 9 9 9 9 9 9 9 10 17 16 15 16 18 17 18 17 17 17 16 17 17 16 17 16 17 17 16 17 18 18 18 19 20 19 19 19 18 15 16 15 16 17 17 16 15 14 14 15 15 15 14 14 13 12 12 12 11 11
3 2 2 2 0 2 3 1 0 4 7 3 1 4 4 5 4 5 10 7 1 2 1 2 3 3 3 2 1 1 3 3 4 3 3 4 10 10 10 9 9 9 9 8 8 8 9 16 14 15 15 17 17 17 17 17 17 17 17 16 17 17 17 16 16 16 16 16 17 17 18 19 19 18 18 18 17 17 18 18 17 16 16 14 13 13 14 14 14 14 13 13 13 12 12 11 10
1 3 2 2 2 3 4 2 3 4 9 7 4 5 7 7 4 4 9 2 2 5 4 2 7 7 5 0 2 2 4 2 5 3 3 9 10 10 9 8 9 10 9 8 8 8 11 14 13 13 14 16 16 17 17 17 17 16 16 16 16 16 17 16 16 16 16 15 15 17 18 18 18 18 17 17 18 17 17 17 17 17 15 13 12 13 13 13 14 14 13 13 13 12 11 10 11
1 1 1 2 1 1 0 1 4 5 5 7 4 5 10 7 3 2 8 0 1 2 0 2 2 4 1 2 3 3 7 3 6 10 12 10 10 9 8 8 9 10 9 8 8 8 14 15 14 13 13 14 16 16 17 17 16 16 16 16 16 16 16 16 16 16 14 14 15 17 19 17 17 17 16 16 17 17 17 17 17 16 15 13 12 12 12 13 14 14 14 13 13 12 11 12 12
2 3 0 4 1 2 1 2 5 3 7 5 8 8 13 11 9 3 6 2 1 2 4 1 2 2 2 3 2 3 3 6 10 13 11 10 10 9 7 9 11 9 8 8 8 8 9 13 13 14 14 15 16 16 16 16 16 16 16 15 15 13 13 14 16 15 13 12 13 15 17 17 16 16 16 16 16 16 16 16 16 15 14 14 13 12 13 13 13 14 13 13 12 12 12 12 12
1 2 1 2 3 1 1 5 1 4 4 5 7 10 9 8 5 3 5 2 2 4 1 3 1 3 5 7 2 3 1 8 12 11 9 10 9 8 8 8 10 13 9 8 8 8 8 15 13 13 13 14 15 14 14 14 14 14 14 14 13 12 12 13 13 13 12 12 12 13 14 15 15 14 13 15 15 15 16 15 14 14 13 13 13 13 13 13 13 13 13 13 13 13 12 11 12
0 3 2 2 1 1 3 4 4 6 4 4 7 13 13 8 7 0 0 4 1 1 2 4 6 7 5 4 2 1 4 8 13 11 9 9 8 9 8 7 9 10 10 10 8 8 8 9 16 13 13 14 13 13 13 13 13 13 12 12 12 13 13 12 12 13 12 12 12 12 12 13 14 15 14 14 15 15 15 14 14 13 12 13 13 13 12 13 13 12 12 13 13 13 11 11 14
1 1 1 2 2 5 4 2 4 8 8 3 5 6 4 7 3 2 3 5 1 2 4 3 6 4 7 4 2 4 6 4 8 11 9 8 8 8 8 7 9 8 10 9 9 8 8 8 9 14 14 14 14 13 13 13 13 13 12 12 12 12 11 11 11 11 12 12 12 12 12 13 14 14 13 14 14 14 13 13 12 11 11 12 12 13 13 13 12 12 12 13 14 12 11 12 14
2 1 5 3 3 1 2 2 6 4 5 5 3 1 1 4 2 7 3 3 2 3 3 2 12 2 3 2 1 5 6 5 8 10 9 8 8 8 7 8 9 9 9 10 9 8 8 7 7 8 10 16 14 13 13 13 13 12 12 11 11 11 11 11 11 11 11 11 12 12 12 12 14 14 13 13 12 13 13 12 11 9 9 10 11 12 12 12 12 13 13 14 13 11 11 12 14
3 5 5 3 1 2 1 3 2 3 5 4 3 3 1 1 1 6 8 5 2 2 2 9 7 8 4 4 4 6 6 7 9 8 8 8 8 8 9 9 9 9 9 8 9 8 7 6 6 7 8 8 8 12 13 12 11 11 11 10 11 10 10 11 10 11 11 11 13 12 12 13 13 13 12 13 12 13 12 12 10 9 8 10 11 12 12 12 12 13 13 13 12 11 12 13 13
2 1 1 1 0 1 2 2 2 2 5 2 4 2 3 2 3 0 5 6 2 0 4 2 2 0 6 9 5 9 8 9 10 8 9 8 9 9 11 9 8 8 8 9 9 8 8 7 7 6 6 5 6 5 6 10 13 11 11 11 11 10 10 11 11 11 11 11 13 13 14 14 13 12 13 12 12 12 13 12 10 7 7 9 11 11 11 11 12 13 13 12 11 10 11 10 10
3 3 2 1 1 2 4 2 1 0 6 0 5 3 1 3 4 2 2 2 3 2 1 2 1 1 1 9 5 11 10 9 8 9 10 11 9 10 11 9 7 8 8 8 8 7 8 8 6 6 5 5 5 4 5 6 12 13 12 11 11 11 11 12 11 11 12 12 13 13 13 11 12 10 14 11 13 12 11 9 9 7 7 8 10 11 11 10 11 12 12 11 10 10 10 10 10
1 2 1 1 3 2 3 2 1 0 6 3 5 2 1 2 3 2 2 4 10 3 2 1 2 2 5 3 7 14 12 10 11 12 11 9 7 7 8 7 7 7 7 7 7 7 8 9 8 6 5 6 5 5 4 5 9 13 11 12 12 12 11 12 11 12 11 11 10 10 9 5 4 6 7 5 10 6 8 10 9 7 6 7 10 10 10 10 11 11 11 10 11 10 8 10 12
2 1 3 2 3 1 4 3 3 0 1 4 3 1 5 2 2 1 3 7 4 3 4 3 7 7 3 3 13 14 14 15 13 14 10 9 7 6 6 6 7 8 7 6 6 6 7 8 8 8 6 7 6 5 4 5 6 9 6 6 6 8 10 11 9 6 8 5 10 7 5 5 4 4 5 7 4 6 7 10 8 7 6 7 9 10 10 9 10 10 10 12 10 9 9 5 8
2 1 3 6 3 6 3 3 4 1 4 4 3 2 1 1 4 1 3 1 2 1 3 3 7 7 9 11 13 15 14 13 13 12 12 11 7 8 5 6 8 7 4 5 5 6 6 6 7 7 7 7 8 7 5 4 5 5 5 5 5 7 7 7 4 5 3 4 4 4 4 4 4 3 3 6 5 8 7 9 8 7 6 6 8 10 10 9 9 10 12 11 10 9 6 5 6
4 4 4 6 5 4 5 4 8 4 4 5 2 4 4 1 1 1 2 3 1 3 3 1 3 8 9 10 13 12 12 11 9 11 11 10 8 8 7 6 5 4 6 6 6 5 5 5 6 5 5 4 4 3 4 4 4 5 4 4 4 3 4 4 3 3 3 3 5 4 4 4 4 4 8 13 9 4 5 8 8 7 6 5 8 7 9 9 10 11 12 9 6 5 5 6 6
2 2 4 4 4 3 8 5 8 8 1 3 1 1 3 3 1 2 4 3 1 4 5 6 9 11 12 12 11 11 12 12 10 10 10 10 9 7 8 7 3 4 4 4 4 5 4 4 4 4 5 5 5 4 4 3 5 5 4 4 4 4 4 3 3 3 3 3 3 4 4 4 4 4 3 2 4 3 3 3 2 2 1 1 4 4 5 5 5 5 6 6 4 5 6 6 6
2 8 2 1 1 1 11 4 7 5 3 2 0 2 1 2 3 3 6 2 4 5 9 6 10 12 15 13 11 10 10 10 9 8 9 10 11 9 10 9 10 5 2 3 4 5 5 5 5 5 4 4 3 3 3 5 6 5 5 4 5 4 4 4 3 2 3 3 3 3 3 4 4 4 4 4 3 2 3 3 3 2 2 1 2 4 4 4 4 4 5 6 5 5 6 5 5
4 4 3 5 6 6 1 0 5 5 2 3 2 1 1 1 1 4 5 4 4 5 1 8 12 15 16 14 12 10 10 10 10 9 11 11 11 10 13 12 10 8 6 5 5 5 6 5 6 5 4 4 2 2 3 3 4 5 4 4 5 5 5 5 4 2 4 4 4 4 5 4 4 4 4 4 4 3 3 4 3 2 2 1 1 2 4 4 4 4 5 6 5 5 5 5 6
3 6 1 6 5 9 8 6 7 3 4 5 3 1 1 2 5 1 4 5 7 2 8 10 9 9 10 12 12 11 11 12 11 9 11 11 12 9 3 3 2 2 6 7 6 5 5 6 6 6 4 4 2 2 2 2 2 5 5 5 4 5 6 4 4 3 2 3 3 4 3 4 5 5 5 4 4 3 3 2 2 2 2 1 1 1 4 3 4 4 5 6 6 4 5 5 5
4 4 4 6 5 8 8 8 9 4 6 4 1 2 4 4 3 3 4 3 1 7 10 11 9 9 8 9 9 10 12 12 11 10 10 9 13 15 14 9 3 7 8 7 7 7 7 8 9 8 6 5 3 3 4 2 3 3 4 4 4 6 5 5 4 3 2 4 3 3 4 5 4 4 5 4 3 3 3 3 3 2 2 2 2 1 1 2 4 3 4 6 5 5 5 5 5
6 10 4 4 5 6 6 5 8 9 3 1 1 4 5 8 1 2 6 1 3 7 11 11 10 9 9 7 9 12 12 12 12 11 12 11 12 12 10 7 7 4 6 10 9 8 7 8 9 8 7 6 5 4 3 1 2 1 1 4 4 4 4 5 4 4 3 3 3 4 4 5 5 5 5 4 4 3 3 2 3 3 3 2 2 3 1 2 4 4 4 6 5 5 5 5 6
3 4 5 7 9 6 2 7 6 8 5 4 4 4 5 2 3 4 2 1 7 8 11 9 12 11 8 8 9 10 12 13 14 10 10 9 10 11 9 8 9 7 6 9 10 10 7 6 6 8 9 8 7 7 6 3 2 0 1 1 3 4 4 4 2 4 4 4 4 4 3 4 4 4 5 4 3 4 3 3 3 3 3 3 2 2 2 2 2 3 4 5 5 5 5 4 6
3 3 2 5 6 5 5 3 5 1 2 6 7 7 3 2 1 6 3 4 6 11 8 9 8 8 9 9 10 8 8 9 9 11 13 12 10 9 12 11 11 8 10 11 10 8 8 9 9 8 9 9 8 7 6 7 7 8 6 5 5 5 6 6 6 6 5 4 4 4 4 4 4 4 5 4 4 4 4 4 3 4 4 3 4 3 3 3 3 2 3 4 4 4 5 4 3
3 1 4 7 5 3 1 5 4 4 3 4 6 1 4 1 4 6 3 5 6 9 9 8 8 8 8 9 8 7 6 7 8 8 10 8 8 9 13 11 11 10 5 6 5 4 6 9 9 8 10 10 10 9 7 7 6 6 5 5 4 6 7 6 7 7 6 6 5 5 5 4 3 5 5 5 5 4 4 4 4 4 4 4 3 3 3 3 3 3 4 4 4 5 5 4 3
0 1 1 4 4 3 4 1 0 4 1 6 3 4 9 7 9 3 2 5 5 5 7 7 6 7 7 8 7 7 8 7 9 8 7 7 8 9 11 11 8 9 9 7 8 7 6 5 5 5 8 11 10 9 10 8 8 7 6 5 4 4 5 6 6 5 5 5 5 5 5 5 4 4 4 4 4 4 4 4 4 4 3 3 4 4 4 4 5 4 4 4 4 5 5 4 5
1 2 3 1 1 2 4 0 2 3 0 2 3 2 9 11 10 2 3 6 11 8 7 7 7 7 7 7 7 8 6 7 8 6 7 7 7 8 11 10 9 8 6 7 12 13 11 9 7 7 9 8 10 11 10 9 9 8 7 6 5 6 6 6 6 6 6 5 4 5 5 5 4 4 4 5 4 3 2 3 3 5 3 3 4 4 5 4 5 5 5 5 4 4 4 3 4
2 1 3 4 2 5 6 4 2 2 1 1 4 2 9 9 13 3 7 6 8 9 8 8 8 8 7 7 7 6 6 6 6 5 8 8 8 9 11 12 10 9 10 10 9 9 11 11 12 10 9 9 8 9 9 9 9 9 8 7 6 7 7 7 6 6 5 3 5 5 6 5 4 5 5 4 5 4 4 4 4 3 3 4 4 4 4 5 4 5 5 7 6 4 5 4 3
5 3 3 1 1 3 4 2 3 3 1 2 3 6 4 5 2 2 1 7 7 9 8 8 9 9 8 9 7 6 7 5 6 7 8 9 7 9 10 11 11 12 11 10 11 11 10 11 12 15 8 7 7 7 7 7 8 8 8 7 7 7 7 6 5 5 6 7 7 7 6 5 5 5 5 4 4 4 3 4 2 1 2 5 5 5 5 5 6 6 4 3 6 6 6 5 4
3 2 0 1 0 1 1 6 3 1 1 1 0 2 8 8 6 1 3 6 9 9 12 10 9 8 9 8 7 7 8 8 8 8 9 8 8 8 9 11 12 11 11 12 12 14 14 13 9 3 4 6 7 8 9 8 7 8 7 7 7 7 6 3 4 4 6 7 7 7 7 7 6 6 5 5 5 4 4 2 4 5 2 2 6 6 5 5 5 7 6 3 4 7 6 7 6
2 0 2 2 2 0 3 1 3 3 2 2 3 4 10 12 8 6 1 4 8 12 12 11 7 7 8 8 8 9 6 7 7 7 9 9 8 8 8 9 9 9 9 11 11 9 6 7 6 7 6 6 6 6 8 8 7 6 6 5 6 7 5 5 4 4 4 6 8 7 5 7 7 7 6 6 6 5 5 4 2 2 6 4 5 6 6 6 5 5 7 5 4 3 5 6 7
3 3 1 1 2 4 3 4 4 1 2 3 6 8 10 10 12 5 5 2 6 9 6 3 5 7 8 9 5 5 6 6 6 9 10 9 9 10 9 8 8 9 9 9 8 6 7 7 7 8 8 7 6 6 7 7 7 8 8 6 8 8 7 7 6 6 5 5 7 8 9 8 7 7 6 6 6 6 6 5 5 4 6 1 4 8 7 7 8 6 5 7 6 5 4 5 7
3 1 1 1 2 5 3 3 6 0 1 8 9 10 10 10 6 4 5 7 2 3 8 6 4 4 3 5 8 7 7 9 7 8 7 6 8 8 8 9 9 9 8 9 9 9 10 12 11 12 9 8 8 8 8 9 10 8 8 9 9 9 9 8 7 7 7 6 5 5 8 7 7 7 6 6 7 7 6 6 6 4 8 7 8 8 8 7 7 7 6 5 8 7 3 4 6
1 0 0 4 0 5 3 4 4 3 5 4 5 6 8 10 5 9 9 8 9 8 4 4 7 7 5 5 5 4 4 3 6 6 6 6 7 9 8 7 9 12 10 9 11 12 10 8 9 7 7 10 10 10 10 10 10 11 11 10 8 8 8 9 8 8 9 8 8 8 6 5 7 7 7 6 7 7 7 7 7 7 8 9 7 6 6 6 7 7 7 5 2 7 5 6 7
2 2 2 1 5 4 9 3 2 2 4 5 1 6 10 4 9 8 9 6 6 8 6 3 4 4 3 1 1 2 1 3 3 5 6 7 8 13 10 8 8 9 8 11 9 8 7 7 6 7 8 10 10 10 9 10 9 7 8 7 9 5 4 5 7 7 7 6 7 7 7 8 7 7 7 6 6 6 8 8 9 8 8 8 6 6 6 7 7 9 9 8 6 2 3 5 7
3 0 1 5 2 1 4 2 3 5 1 2 5 7 6 6 7 7 4 4 6 9 10 12 8 3 3 3 4 5 4 3 4 6 8 7 8 8 8 9 7 8 7 9 10 13 10 9 9 10 10 11 9 9 8 5 5 4 3 3 4 4 3 4 4 4 5 4 4 3 2 3 6 7 7 7 5 5 8 9 8 7 8 7 8 8 7 7 7 7 7 7 9 7 4 5 3
1 4 4 2 1 3 5 3 4 3 2 2 6 4 2 8 7 7 7 5 15 13 14 15 13 12 7 7 3 6 8 8 8 8 9 10 10 11 9 5 5 6 7 10 10 10 8 11 10 10 8 9 7 7 7 4 4 4 4 4 4 4 3 4 4 5 6 7 6 3 8 6 6 6 7 8 6 6 7 8 9 8 8 6 6 7 8 9 8 8 8 8 8 9 7 4 5
1 4 9 6 4 4 3 3 4 7 2 5 6 4 0 5 5 6 7 8 15 12 16 16 14 14 13 12 9 5 2 6 10 11 11 11 10 8 6 6 6 6 6 6 5 5 6 8 8 8 7 8 9 10 9 7 7 7 7 8 9 7 6 7 10 10 8 8 9 7 6 6 6 6 6 7 7 6 3 2 1 7 7 7 6 6 6 7 7 8 8 8 7 6 10 7 7
2 6 8 9 5 5 2 1 5 3 3 1 1 6 3 3 7 8 7 8 12 12 15 15 15 14 14 12 13 12 8 4 2 3 3 4 6 7 8 9 9 9 8 7 6 6 6 6 8 9 9 8 9 10 11 9 9 9 11 11 10 10 10 9 6 6 8 6 4 7 6 2 3 7 7 8 8 5 7 8 5 3 6 6 6 6 6 8 8 8 7 7 7 7 6 8 9
3 4 5 4 5 6 4 3 3 3 2 4 4 3 6 2 6 4 9 5 12 13 15 15 13 13 13 12 12 12 11 10 6 4 1 1 4 6 7 4 4 5 3 5 5 2 3 8 8 8 6 6 5 3 6 7 9 9 10 10 8 8 9 8 7 6 4 4 5 6 7 5 4 4 5 6 5 5 7 6 6 7 6 6 6 7 8 7 6 5 6 6 6 7 9 9 8
5 5 7 7 9 6 6 4 3 0 2 4 5 1 6 1 4 6 7 9 10 11 12 12 13 13 13 13 12 12 11 11 10 10 10 8 5 6 9 8 7 7 6 2 1 6 7 2 0 1 2 1 2 3 5 7 7 7 8 8 8 6 5 2 3 3 4 4 5 4 6 6 4 3 2 2 3 6 9 9 8 7 6 6 5 6 6 8 9 9 7 7 8 7 7 6 8
9 4 3 4 4 4 4 4 5 0 3 3 3 0 5 2 5 8 4 3 6 8 9 11 11 12 13 12 13 13 12 11 10 10 11 11 10 10 10 9 11 10 9 12 11 10 9 7 5 2 2 1 1 3 4 4 5 5 5 6 8 5 2 2 3 4 5 5 5 4 4 5 6 5 5 6 5 5 2 4 6 7 7 7 6 7 7 7 8 9 10 9 9 8 6 7 8
3 6 3 3 7 3 4 6 4 4 1 5 7 1 4 1 2 3 3 2 3 5 6 9 11 13 13 13 14 13 12 12 11 12 11 12 10 10 10 7 5 6 4 7 12 11 8 8 9 9 6 3 0 2 5 4 3 4 4 2 1 1 2 1 2 4 4 5 6 6 5 5 5 7 6 5 6 6 7 7 7 6 6 6 7 6 7 8 8 8 8 8 9 9 8 7 6
6 3 4 3 1 6 4 3 5 4 3 4 1 4 4 4 0 2 6 5 6 7 9 11 12 13 12 12 12 13 14 13 13 13 14 14 14 14 13 13 11 7 7 5 3 5 7 6 7 8 7 6 7 8 7 5 3 2 2 4 1 5 7 6 3 5 5 7 7 7 5 5 6 5 7 7 6 7 7 7 5 4 5 6 7 6 6 6 6 6 7 7 7 7 6 6 6
4 6 7 6 2 2 3 1 2 3 5 1 4 2 6 4 0 2 8 6 7 9 9 9 11 11 11 12 13 12 12 12 12 12 12 13 13 13 13 12 11 7 5 5 4 3 4 3 4 4 4 2 6 5 5 5 5 1 5 9 11 5 5 7 8 7 6 6 7 9 7 5 3 5 7 7 6 8 7 7 5 5 5 5 5 5 5 6 6 7 7 7 7 8 7 7 7
7 6 6 7 2 1 3 2 0 2 5 2 2 2 5 1 1 6 8 8 7 10 10 10 11 11 11 11 11 11 11 11 11 11 11 11 12 11 11 12 12 10 8 7 4 3 2 2 2 3 2 2 2 5 6 5 6 8 13 10 8 8 8 8 8 8 7 7 7 9 9 8 9 8 6 7 7 8 6 6 5 6 5 4 5 6 6 6 6 6 6 6 7 7 7 8 8
8 4 9 7 7 4 1 3 4 6 6 1 3 2 5 7 2 5 8 8 9 9 10 9 10 10 8 8 10 11 10 9 9 9 9 10 11 12 11 11 11 11 12 10 5 3 4 2 2 4 4 0 2 4 5 4 5 9 7 7 6 6 8 8 8 7 7 6 5 5 5 5 6 8 8 4 6 6 8 8 7 5 5 4 3 3 3 5 5 6 5 6 5 4 7 8 7
0 3 7 7 5 6 3 5 4 2 2 2 5 1 1 2 2 4 5 10 11 10 11 11 11 10 10 10 12 12 10 9 9 9 8 9 9 10 9 9 9 10 11 10 11 11 7 6 5 5 5 4 4 3 6 9 12 12 4 6 7 8 8 7 6 5 6 6 6 6 7 5 2 2 3 4 3 3 7 5 5 4 4 5 6 6 4 5 6 7 5 5 6 6 5 8 8
3 4 4 4 4 9 6 1 0 4 6 1 0 4 4 1 5 5 3 11 10 10 11 10 9 9 10 10 10 11 11 12 13 13 14 14 11 11 10 10 10 10 10 11 11 10 10 7 6 6 5 4 5 5 7 9 8 6 5 7 10 10 10 9 8 7 7 5 6 7 9 6 7 6 6 9 10 3 5 5 6 5 4 4 5 7 6 6 6 7 7 6 7 6 7 6 5
7 1 6 2 4 6 6 5 2 3 4 1 1 4 6 3 1 3 4 10 8 10 9 8 8 8 9 8 8 9 10 10 11 12 12 13 13 15 15 13 14 13 13 12 12 11 10 10 8 7 5 3 2 4 7 9 8 10 13 14 13 12 10 9 8 8 7 6 7 7 5 5 5 5 6 6 8 8 6 6 5 6 5 3 5 6 7 7 7 7 7 7 7 6 8 7 7
8 5 4 5 1 2 2 5 1 1 0 2 4 3 2 2 1 1 6 8 10 9 9 8 9 8 8 8 9 9 9 9 10 12 12 12 13 13 14 14 14 12 12 11 11 11 11 11 11 11 10 6 3 4 6 6 8 9 7 7 9 9 9 8 7 7 7 7 8 8 8 7 6 5 4 6 8 8 8 6 6 6 7 8 6 6 6 7 7 7 7 7 6 7 7 9 7
4 3 3 1 6 3 4 4 4 7 2 4 1 2 2 2 2 3 6 8 9 9 9 8 8 8 7 7 7 8 9 9 10 10 11 12 12 13 13 13 14 13 12 11 11 11 13 12 12 12 12 10 6 5 5 5 6 7 5 2 4 7 7 8 8 8 8 9 8 8 8 8 8 9 8 6 7 8 8 7 7 6 7 8 7 6 4 5 7 7 7 7 6 6 7 7 6
1 4 2 1 2 2 5 2 2 3 5 4 6 1 2 2 3 7 7 8 8 9 8 7 7 7 7 7 7 8 9 10 10 10 11 11 12 13 13 12 12 12 10 11 11 12 11 12 13 13 12 11 13 11 7 5 4 5 5 5 5 5 8 8 8 9 9 9 9 8 8 8 6 7 6 7 7 7 8 7 9 8 8 8 7 7 7 7 7 7 6 5 5 7 7 5 5
5 5 2 2 1 4 4 3 2 3 4 4 6 3 1 2 3 7 9 7 10 8 8 8 7 6 6 6 7 8 8 9 10 10 11 11 11 11 11 11 11 12 13 15 14 13 14 15 12 12 13 11 12 11 13 9 6 4 5 6 6 6 7 6 6 6 8 8 8 8 8 7 9 8 8 9 9 8 7 8 10 9 9 9 9 9 8 7 7 7 6 6 6 6 5 4 4
Wind_Direction
257 336 204 162 76 95 62 0 149 306 70 258 320 187 261 229 258 339 285 315 344 20 50 47 33 25 177 185 138 134 56 135 174 136 215 238 328 141 138 125 128 136 145 144 142 140 137 139 139 138 139 137 135 132 132 131 129 127 125 123 123 123 121 119 120 119 119 119 119 119 119 118 117 116 114 113 114 113 113 112 109 107 105 108 111 110 110 106 100 98 94 92 88 89 90 89 83
262 19 79 131 86 73 272 123 98 0 34 7 245 125 247 264 31 226 245 235 215 127 161 85 78 82 84 105 124 118 32 28 236 141 60 59 80 88 133 140 142 145 146 144 141 137 138 143 143 142 141 140 137 135 135 133 132 128 126 124 123 123 121 119 121 121 120 120 120 121 121 121 118 118 119 118 116 114 111 111 112 112 111 108 108 111 111 108 106 103 97 93 87 84 79 73 67
274 76 24 25 23 81 104 41 257 52 107 249 270 203 311 302 217 245 229 225 179 149 174 105 111 77 68 93 27 40 225 347 73 92 111 163 122 203 141 141 140 142 146 141 141 139 141 146 146 146 145 143 140 138 135 133 132 130 127 126 125 123 121 122 122 122 122 122 122 123 123 122 121 122 120 117 115 114 113 113 111 112 113 113 112 112 112 110 108 107 103 98 92 85 79 71 67
60 34 131 71 291 20 71 32 85 130 154 216 285 266 213 204 239 227 244 249 160 157 128 28 43 295 105 56 95 76 61 219 47 146 135 180 164 133 134 132 133 138 139 141 140 141 143 150 148 150 147 146 142 139 136 135 134 130 128 126 125 126 123 124 124 124 124 125 124 125 125 123 124 124 122 122 120 114 113 114 112 112 111 111 109 109 111 110 109 109 105 102 95 92 81 73 67
49 4 84 95 109 352 105 168 143 108 214 199 147 271 225 219 254 289 275 229 261 306 87 131 75 344 80 109 47 118 224 104 119 191 108 65 111 126 127 132 134 140 139 139 137 140 147 151 150 148 146 147 143 140 139 135 133 130 129 127 127 125 125 126 126 126 126 127 126 126 126 126 127 126 125 125 118 113 112 105 105 106 103 103 103 102 102 106 108 108 106 100 92 82 76 71 63
48 48 353 91 109 184 52 59 69 218 225 150 235 253 253 247 255 261 277 315 354 83 42 64 149 176 29 2 111 103 146 151 169 103 130 141 130 135 130 134 134 139 135 133 138 141 146 150 148 145 144 145 144 141 139 135 134 129 130 128 127 128 128 128 128 128 128 129 128 128 129 129 129 129 127 123 118 112 109 112 114 113 112 110 106 103 100 98 98 95 93 88 84 79 75 68 60
244 42 356 26 6 61 157 135 219 211 267 166 234 260 254 273 226 341 301 346 26 64 350 134 110 92 79 312 28 40 292 162 128 160 126 137 127 130 133 131 135 135 134 136 135 137 147 145 143 141 143 143 142 143 140 135 132 130 128 130 130 132 133 133 131 132 132 131 127 129 129 129 130 130 128 124 123 121 120 119 119 117 114 111 107 102 99 98 96 91 90 88 85 82 77 70 60
89 113 269 110 222 54 113 172 243 164 272 180 237 259 277 268 296 334 287 113 235 100 42 102 101 88 223 297 155 304 2 22 100 104 115 125 128 127 128 133 131 132 135 133 137 139 147 140 140 140 141 139 143 144 141 136 131 128 131 134 134 135 137 136 135 135 135 133 130 130 131 129 130 131 129 129 126 124 123 121 121 117 115 112 109 104 101 100 99 97 94 91 89 84 76 68 65
347 86 299 76 79 28 71 213 244 233 285 293 272 259 275 271 277 261 279 290 92 81 149 165 220 83 215 44 49 310 22 76 91 108 115 123 130 133 132 139 139 136 133 138 135 140 135 141 139 140 140 141 144 144 141 137 132 131 133 137 136 136 138 140 138 136 136 134 130 130 131 129 130 131 132 132 129 127 123 123 119 117 117 115 113 109 106 104 102 100 96 92 85 76 71 66 68
18 98 247 146 133 230 349 292 148 241 221 245 248 259 256 273 292 200 223 19 147 135 22 37 63 116 113 87 87 0 54 99 105 97 120 134 136 131 130 140 143 140 139 137 136 133 136 142 138 140 140 142 143 142 140 137 134 135 138 139 138 138 141 142 139 137 135 135 130 128 130 130 129 131 129 129 130 126 123 120 119 121 119 118 117 114 110 106 102 100 97 88 78 70 62 63 76
290 3 145 75 39 156 220 271 260 301 251 284 282 253 252 264 244 29 193 145 280 169 186 115 55 113 105 95 32 329 100 124 118 130 149 143 130 126 124 125 138 139 137 134 133 131 136 138 143 141 141 141 140 139 138 136 135 136 140 142 141 142 143 142 141 139 136 133 130 127 126 126 131 134 129 129 128 124 121 121 122 121 121 120 118 116 114 108 103 100 93 85 77 68 61 61 89
68 130 32 111 182 162 229 205 269 269 285 279 270 253 231 203 157 121 106 110 200 158 202 139 166 153 82 112 121 121 128 120 132 145 148 133 124 121 123 123 132 133 130 129 126 129 135 142 142 150 145 141 139 138 139 137 139 141 145 144 143 143 141 139 139 136 133 129 126 124 125 131 134 127 121 123 128 123 122 122 123 125 123 122 119 119 116 112 107 99 91 86 77 70 64 68 100
136 104 86 90 222 121 221 254 254 281 310 281 224 295 21 182 156 125 116 118 133 150 281 201 142 120 101 171 146 130 140 158 153 151 140 129 125 121 117 125 131 128 124 123 127 130 135 135 140 143 147 144 142 140 143 144 144 144 144 143 142 144 140 136 134 129 125 125 127 130 129 129 127 123 124 128 128 124 123 123 125 127 128 124 120 117 116 113 106 96 90 84 82 77 69 71 102
119 178 120 216 84 166 188 253 300 327 295 255 240 260 284 57 289 155 119 100 202 191 270 135 135 117 83 104 157 164 178 161 154 147 124 118 116 115 122 124 123 124 120 122 127 131 128 126 129 141 145 143 146 149 149 144 139 140 139 140 141 142 137 134 128 125 126 129 134 132 132 130 129 129 132 133 133 128 126 127 128 133 130 123 119 115 113 109 102 95 89 85 86 82 79 81 94
214 169 82 126 1 65 255 172 203 142 275 254 276 348 18 46 112 323 132 124 341 279 92 62 171 47 197 172 185 194 163 156 147 126 112 105 104 109 123 118 116 117 120 127 126 129 133 125 133 135 142 133 139 139 150 147 138 139 138 137 139 138 137 135 132 132 133 132 137 139 138 136 134 134 138 137 133 131 131 129 133 136 131 125 117 112 108 104 98 95 91 87 87 85 83 81 89
191 88 93 115 252 167 268 198 275 147 264 244 281 347 40 4 31 93 296 161 139 80 83 225 78 175 163 170 199 155 132 134 127 111 108 104 101 111 124 125 123 120 121 127 129 133 139 137 129 127 127 127 127 132 136 143 146 141 136 134 139 140 140 137 135 138 138 136 140 142 142 140 140 140 142 138 136 133 131 134 136 139 135 125 119 112 106 101 98 95 94 92 86 79 80 90 95
101 80 6 51 278 153 259 178 118 245 265 277 296 28 106 13 315 101 323 66 124 174 35 337 299 354 156 198 144 130 131 126 123 119 112 111 115 117 120 124 124 121 128 128 131 136 140 144 137 134 135 132 131 127 124 130 149 142 140 142 144 142 138 138 139 143 141 143 141 138 132 125 126 137 133 131 132 125 132 136 139 142 138 132 121 113 108 103 98 95 95 89 78 75 78 95 116
92 145 118 278 193 184 220 202 195 178 247 285 331 71 99 77 6 64 27 31 47 33 39 337 25 32 80 97 128 128 136 139 141 130 128 122 125 120 116 121 127 133 132 124 131 135 136 146 143 149 137 134 131 128 132 141 152 144 139 143 142 143 142 144 144 148 149 141 144 129 117 130 116 120 133 133 118 137 137 139 141 142 144 137 122 117 110 104 98 94 90 83 79 72 78 83 116
129 147 120 224 191 238 176 220 261 341 277 270 283 298 113 125 142 224 84 300 12 35 355 39 66 54 82 112 122 135 144 145 141 131 130 128 125 119 104 117 129 129 127 146 145 146 138 143 147 144 146 150 150 147 145 144 135 126 134 131 143 150 154 144 141 139 112 129 110 117 116 114 124 121 117 129 129 138 141 142 143 146 148 144 127 119 114 107 102 94 86 80 72 74 76 91 108
228 118 221 241 205 246 245 237 274 245 260 277 298 329 13 185 164 111 156 168 38 162 159 11 78 120 126 129 139 148 146 131 126 128 125 122 118 112 105 99 112 142 163 169 148 143 145 148 142 140 139 116 92 81 75 61 85 110 122 123 117 123 143 138 121 111 112 116 130 111 115 121 117 125 154 144 136 132 144 144 149 146 153 147 127 116 117 114 106 95 87 73 63 68 80 95 105
276 123 205 231 209 238 269 249 246 275 240 268 145 299 35 345 107 106 155 100 235 253 239 175 171 150 147 153 147 148 149 143 133 125 116 109 102 76 59 41 333 211 187 140 128 136 117 94 90 89 78 83 82 79 102 78 107 124 137 133 115 125 136 115 103 109 133 135 117 110 121 126 123 110 94 89 99 119 112 115 119 100 92 110 94 88 94 90 87 86 79 65 62 73 82 95 109
114 218 245 199 334 190 262 269 283 273 308 282 265 73 239 302 82 85 136 134 232 209 214 217 151 153 150 160 165 155 145 125 105 102 111 107 88 94 115 171 195 198 156 103 102 103 93 92 80 76 91 106 100 102 108 127 126 139 151 147 139 140 136 129 126 140 133 106 96 105 117 122 124 118 115 119 116 124 124 115 106 95 90 88 66 92 91 98 92 88 91 74 69 70 84 94 104
241 302 244 220 221 230 294 179 254 232 264 235 341 263 143 53 272 175 150 175 236 227 74 140 160 162 164 156 155 152 123 104 100 112 121 116 123 140 169 172 172 171 150 132 114 103 100 96 92 99 106 107 105 102 120 131 144 150 152 150 136 142 139 142 152 173 135 132 146 142 142 139 128 123 131 135 143 145 135 129 133 133 134 122 81 93 95 95 100 98 91 87 91 86 83 93 103
191 249 253 273 196 227 240 265 279 285 213 234 213 38 299 0 304 142 171 235 250 290 117 124 145 148 149 156 169 136 118 124 118 115 114 112 118 126 273 14 77 84 148 134 109 113 117 117 117 125 120 117 107 104 123 142 156 158 156 159 129 141 143 157 151 185 123 149 155 148 148 148 146 142 148 152 162 145 152 140 125 133 136 151 105 79 102 86 93 90 97 95 100 96 96 97 106
202 265 262 259 258 240 249 236 256 279 264 278 97 156 238 188 211 16 277 283 358 105 112 127 138 148 158 154 130 116 136 125 121 117 112 121 141 166 181 173 200 178 149 119 130 137 148 142 140 145 141 126 104 118 143 209 177 160 155 126 123 150 149 158 156 144 184 168 171 163 153 148 147 148 154 160 145 152 146 150 152 162 151 159 127 100 97 107 88 93 98 103 111 107 103 103 107
210 225 236 282 266 260 245 245 243 234 250 279 104 261 271 239 29 264 251 242 126 115 112 130 138 152 159 146 137 152 149 131 131 133 135 141 155 165 182 160 175 194 136 134 151 163 161 154 145 140 136 127 127 123 114 53 28 13 56 113 162 141 136 151 159 159 168 157 179 181 173 161 163 157 152 149 153 157 167 169 166 173 174 160 149 156 156 109 103 102 99 104 108 109 106 116 117
171 223 234 247 252 265 250 208 231 225 214 161 194 249 257 314 149 282 314 219 127 115 127 140 152 158 149 151 161 172 148 150 150 136 131 142 158 166 162 173 173 170 147 158 163 172 163 127 135 149 143 141 138 145 139 113 105 37 49 104 160 151 141 149 152 152 173 191 183 188 184 171 153 152 148 150 157 160 175 188 194 177 176 170 177 183 154 137 114 128 130 118 115 107 105 110 121
245 219 277 256 272 253 239 222 234 102 266 187 183 234 266 295 99 221 226 170 149 131 142 145 147 155 155 164 177 175 144 148 137 142 148 158 169 168 167 178 179 163 173 174 177 168 145 157 175 169 149 142 147 157 135 138 156 167 160 167 180 160 150 175 172 168 182 187 190 186 187 175 161 152 146 151 163 172 182 191 200 186 196 171 179 184 162 131 133 140 99 91 92 98 99 90 103
273 356 327 292 2 344 165 195 220 165 246 153 166 358 310 313 226 239 233 166 148 144 152 151 154 156 165 175 176 165 148 148 151 155 167 168 169 171 171 182 174 167 165 168 154 136 164 176 176 174 160 155 157 155 152 164 165 134 144 178 188 172 177 178 176 177 176 182 183 184 187 179 173 160 157 164 175 175 175 182 200 211 201 172 162 162 139 125 116 111 88 97 101 101 101 95 85
10 56 159 332 1 339 286 287 80 152 259 173 165 298 268 254 261 298 286 141 107 125 151 158 154 166 172 178 179 170 130 142 172 169 172 174 170 169 169 179 178 168 159 165 145 156 171 195 197 193 183 162 147 156 171 163 158 153 154 171 184 179 187 180 182 168 168 178 182 188 187 185 176 156 160 173 177 174 173 186 202 220 210 161 148 151 147 142 135 134 129 119 133 129 125 130 125
202 253 70 205 22 271 293 255 192 157 103 222 86 225 287 287 274 166 232 162 142 173 179 162 166 168 178 182 184 176 147 160 172 166 178 178 170 169 172 172 176 170 159 165 173 170 169 182 189 202 202 158 155 175 168 149 162 154 155 166 176 189 193 187 178 172 172 174 183 193 195 190 173 161 167 172 183 172 177 206 218 228 190 151 156 166 150 143 141 148 143 131 117 100 105 122 127
11 34 289 321 151 275 300 311 168 157 317 346 91 258 251 280 281 64 196 164 160 173 189 174 176 177 175 184 186 174 159 147 158 170 177 180 171 171 172 177 174 173 177 178 171 170 175 180 193 198 196 171 169 170 157 159 152 156 160 167 174 193 196 194 190 181 158 135 220 199 195 189 167 164 162 157 156 157 161 190 240 245 200 163 164 164 147 145 150 148 161 144 131 119 121 101 100
355 98 260 293 351 265 348 359 341 136 115 346 155 228 323 305 302 22 107 156 173 181 198 191 180 180 178 186 182 165 145 149 148 175 187 184 183 175 177 174 177 181 180 176 176 175 182 189 196 202 176 157 171 157 140 146 155 151 156 167 182 202 213 204 186 183 156 171 198 199 189 183 173 167 163 157 157 167 157 135 91 358 246 173 167 169 163 152 149 153 156 163 144 143 131 123 112
318 13 147 216 147 331 304 305 13 45 127 243 339 228 245 245 276 45 104 171 186 191 205 201 179 180 185 180 179 175 172 157 167 181 191 192 184 183 178 177 178 181 188 187 185 179 182 190 199 175 123 173 176 160 154 154 158 154 158 172 186 200 211 228 231 195 175 176 186 196 186 181 176 173 173 168 160 152 123 151 196 122 27 251 159 164 164 149 153 155 149 124 132 133 136 138 135
219 309 28 333 339 255 241 33 265 44 16 241 286 244 260 267 275 311 1 195 196 208 203 201 159 174 182 184 190 190 156 158 179 176 187 195 186 179 176 176 177 186 190 193 192 187 172 176 149 175 174 179 178 164 153 147 151 149 151 166 190 201 201 197 199 209 184 172 190 181 191 185 180 177 178 171 160 149 146 152 109 122 104 282 164 150 143 146 146 155 148 125 89 76 127 140 133
174 151 153 167 352 301 313 246 262 278 294 283 253 242 254 259 272 305 331 57 191 222 213 193 174 182 186 192 189 163 156 171 173 178 191 192 184 172 172 177 183 189 194 195 195 180 168 172 177 187 183 179 176 167 157 153 158 158 158 178 196 202 200 196 193 195 195 207 206 174 188 188 178 174 175 171 159 153 155 146 163 151 121 202 239 144 153 157 153 143 146 134 119 92 86 127 124
135 113 103 273 261 287 276 263 257 1 265 234 228 235 242 256 262 285 342 345 9 181 169 189 193 182 192 200 195 177 166 182 176 171 179 193 188 177 170 177 189 194 197 192 190 194 186 187 185 192 183 177 179 179 176 170 162 158 173 185 195 194 197 191 191 191 195 201 207 217 198 184 173 168 169 165 164 162 154 157 160 185 152 162 234 162 161 157 152 148 140 136 132 123 125 128 122
164 228 299 294 99 286 267 268 331 314 157 277 238 239 244 247 21 357 354 18 13 348 321 211 193 187 201 204 199 181 153 78 116 145 174 182 193 182 175 179 191 193 201 192 197 200 198 197 196 183 176 189 192 192 184 183 182 183 179 187 185 187 186 187 191 191 195 189 193 203 191 173 174 170 168 170 165 165 158 164 171 185 174 178 201 151 148 146 138 134 138 111 102 140 143 149 151
79 197 253 316 283 244 280 294 309 279 139 261 159 199 244 244 58 19 10 25 6 12 30 342 333 338 346 6 52 90 122 89 136 154 166 187 194 190 189 189 191 200 197 199 198 199 206 206 204 189 195 197 199 195 190 191 188 185 182 178 180 173 186 186 193 195 184 180 182 187 182 181 174 172 166 164 161 168 167 166 180 177 175 166 152 145 147 149 155 152 155 147 135 84 105 153 170
139 80 265 230 231 13 308 292 318 328 91 247 168 185 270 348 93 62 4 25 40 28 28 32 29 76 136 171 167 144 133 113 167 173 175 190 200 202 202 194 185 186 196 201 197 200 199 201 202 201 203 204 197 200 206 200 181 163 150 147 151 141 155 151 170 180 173 152 204 184 197 199 176 169 164 158 162 178 173 174 171 170 168 162 155 154 158 157 159 159 153 154 144 138 145 165 181
302 173 215 151 144 238 172 257 314 326 2 67 91 53 340 8 25 5 349 357 44 21 27 28 28 26 6 20 25 166 168 165 164 171 184 190 193 203 203 192 185 198 209 211 205 200 200 200 204 208 205 206 200 199 200 175 143 129 123 107 118 95 97 146 171 204 193 180 173 158 202 198 176 169 162 157 169 194 187 174 169 170 155 153 158 159 165 169 170 166 161 154 165 154 155 147 185
312 230 211 204 197 250 309 308 24 26 343 344 122 51 161 333 36 16 337 10 41 18 32 28 24 28 28 24 6 340 121 155 167 181 192 194 191 186 195 203 198 200 220 239 255 238 216 205 204 208 205 201 199 195 190 176 178 163 154 154 169 178 181 180 193 193 189 190 182 179 199 193 176 166 163 157 169 198 146 45 303 158 155 152 160 168 164 158 166 167 170 162 161 168 156 157 171
118 264 200 216 205 208 166 332 66 356 98 348 50 129 177 319 31 339 344 18 38 26 34 33 30 27 34 38 33 36 19 13 60 126 172 191 197 195 201 205 202 200 199 201 216 229 227 215 203 205 206 205 203 197 186 179 180 181 179 182 187 191 194 205 196 186 191 194 165 172 158 177 212 171 173 178 174 166 138 182 193 227 161 155 155 154 170 175 171 169 159 162 161 147 146 162 176
217 242 185 174 150 183 195 117 127 204 258 301 28 108 137 6 334 345 338 18 35 29 29 37 34 32 32 33 37 36 32 32 34 47 86 226 231 224 227 235 223 233 209 200 207 165 250 230 213 207 207 210 217 211 195 197 192 188 184 187 190 204 210 210 194 187 176 174 175 163 136 164 187 244 186 181 154 136 134 187 184 198 167 167 160 166 177 171 159 155 159 153 151 162 167 168 168
214 239 178 175 180 194 143 113 144 158 114 272 319 348 72 323 288 334 4 34 15 27 28 27 31 34 34 34 35 36 32 33 32 33 29 28 9 8 8 353 3 12 360 319 211 211 232 239 237 303 274 263 247 225 211 208 210 201 192 185 191 204 215 197 158 151 163 171 170 146 152 148 163 214 217 138 151 175 167 182 193 178 167 165 170 166 173 170 166 156 154 153 162 172 178 169 159
260 227 98 72 67 68 130 111 112 9 77 251 257 267 110 293 321 347 358 71 16 24 23 24 30 35 34 32 31 32 31 23 23 27 28 24 19 16 9 20 23 16 9 356 0 10 8 355 354 320 259 206 209 231 235 233 222 208 199 193 196 191 163 145 161 175 166 158 151 145 143 148 163 206 215 177 161 163 154 210 200 172 172 167 173 179 170 170 167 169 170 167 169 172 176 168 179
108 108 101 29 43 39 27 67 102 72 171 256 236 347 125 145 307 326 359 331 314 23 30 31 34 36 34 35 36 36 31 28 24 23 29 28 24 23 7 7 6 33 22 35 7 354 344 1 2 9 357 344 354 216 217 237 244 216 212 198 144 116 267 302 201 176 157 149 153 151 159 169 168 192 199 192 175 175 177 204 209 181 171 169 176 177 180 176 178 176 167 165 170 173 176 178 175
123 144 125 97 352 15 26 344 37 117 273 257 288 75 83 150 246 342 66 51 47 50 45 43 42 37 34 34 35 34 31 27 25 25 20 20 21 19 14 11 2 10 4 38 58 7 355 2 5 13 16 19 12 348 343 296 276 247 79 74 203 195 192 187 226 235 200 173 156 152 167 172 187 200 210 184 179 187 178 202 203 180 174 173 182 184 183 180 170 164 160 167 172 177 173 173 168
94 90 66 119 236 46 245 7 183 173 173 224 174 74 45 18 172 141 85 70 67 60 58 51 48 42 38 37 36 34 30 25 23 23 21 19 18 13 12 9 7 1 352 353 0 9 11 4 0 355 10 32 146 157 190 225 225 71 102 193 211 215 218 204 201 209 206 183 169 172 172 185 159 207 204 183 183 180 179 191 180 183 185 185 181 177 185 173 162 162 168 169 166 171 177 173 175
116 130 131 98 117 67 197 279 234 332 296 252 164 106 88 173 103 119 107 103 80 76 66 57 51 46 39 37 33 30 29 27 23 22 23 20 16 11 9 8 11 6 346 330 341 359 344 16 334 319 273 105 223 209 202 186 146 176 205 198 189 196 205 208 213 205 195 192 176 176 179 183 181 193 213 204 178 174 180 189 183 181 181 172 174 183 178 174 163 162 165 164 172 172 162 183 187
194 144 140 167 141 157 197 190 174 195 187 275 290 67 190 164 285 113 122 103 87 77 71 60 53 45 40 35 34 29 21 21 22 24 22 19 15 12 7 7 5 2 1 358 356 313 296 259 239 273 296 61 221 205 175 143 172 227 216 205 197 205 210 205 207 199 186 184 186 178 181 176 193 199 201 184 147 149 181 178 176 178 179 170 154 144 167 149 139 133 156 164 158 163 183 179 185
318 152 81 92 205 140 146 203 146 188 147 51 3 87 41 88 348 38 71 83 81 78 66 58 46 37 32 28 24 17 11 7 8 13 20 19 16 9 10 6 7 4 0 356 348 335 302 268 243 243 238 201 218 181 165 168 189 204 217 223 217 214 218 208 195 186 185 176 168 166 206 182 172 105 87 82 35 191 196 170 168 173 180 180 157 145 169 161 163 164 163 163 177 137 191 202 196
242 106 153 203 170 113 83 53 58 121 65 66 272 102 76 195 55 0 67 87 81 75 68 59 51 42 37 33 22 14 7 1 7 3 358 2 6 8 8 4 5 5 360 353 343 333 321 290 271 261 249 215 206 186 187 208 200 142 177 216 222 217 210 197 191 185 176 157 155 174 202 183 163 179 173 149 148 213 242 201 172 167 176 192 167 167 182 177 174 173 180 181 189 173 170 218 206
90 120 225 101 86 111 124 181 339 60 145 234 31 134 160 144 214 196 118 95 92 81 73 64 54 42 42 34 26 14 5 5 4 2 0 359 358 358 359 360 1 0 356 349 345 338 339 339 314 294 299 293 234 224 200 217 211 190 201 212 210 209 202 196 188 181 171 152 156 176 181 164 171 174 181 170 145 165 217 215 199 170 163 187 188 174 181 183 173 176 182 185 190 169 169 184 218
148 197 169 124 231 219 322 93 75 106 167 120 351 327 68 30 149 201 136 109 102 91 80 63 44 36 32 27 21 9 5 7 7 4 2 2 0 359 356 353 351 353 350 346 341 347 347 347 346 345 329 305 290 220 218 218 223 228 243 234 209 202 199 197 187 176 167 172 170 172 175 183 152 156 177 178 144 165 198 201 212 194 162 193 201 190 179 173 170 169 173 179 180 169 174 188 202
61 86 39 317 100 152 132 200 167 119 206 88 321 22 187 207 229 115 114 111 108 99 81 68 55 44 37 25 15 10 6 8 5 5 5 2 358 357 356 350 346 346 347 347 346 351 353 347 345 348 347 345 308 268 253 234 228 241 250 245 227 212 202 194 184 171 173 183 184 183 179 178 181 171 184 175 157 168 189 193 211 198 173 189 189 185 182 181 165 174 167 170 173 169 175 184 180
34 45 343 17 29 226 104 50 79 169 164 160 140 202 270 267 272 124 106 103 100 94 89 74 58 45 42 30 19 9 10 7 6 5 3 3 359 355 351 349 343 342 346 350 356 353 348 347 349 353 349 348 352 336 298 268 254 245 255 254 240 233 215 207 192 179 178 185 189 188 191 194 174 186 173 170 165 172 191 196 203 190 175 184 188 185 178 188 171 167 173 163 169 172 178 179 166
142 139 108 170 347 119 128 233 16 66 102 179 130 200 260 330 43 96 91 77 100 100 100 84 67 52 44 32 24 19 12 10 6 4 3 2 359 352 348 346 345 350 353 357 356 351 352 349 344 348 346 351 345 345 341 316 280 278 272 260 240 234 226 220 209 192 188 187 182 184 184 183 197 184 169 178 172 174 173 184 209 186 176 180 184 186 178 171 169 168 165 170 178 173 170 156 155